| time (UTC) | temp C | wind direction | speed KPH | gust KPH | rain 1hr cm | rain 24hr cm | rain mn cm | humidity % | barometer mb |
| 20260509211517 | 30 | 69 | 1.6 | 11.3 | 0.00 | 0.00 | 0.00 | 48 | 1006.6 |
| 20260509210021 | 30 | 355 | 3.2 | 9.7 | 0.00 | 0.00 | 0.00 | 50 | 1006.8 |
| 20260509204514 | 30 | 227 | 1.6 | 6.4 | 0.00 | 0.13 | 0.00 | 51 | 1007.0 |
| 20260509203019 | 30 | 232 | 3.2 | 9.7 | 0.00 | 0.13 | 0.00 | 52 | 1007.2 |
| 20260509201512 | 30 | 296 | 1.6 | 11.3 | 0.00 | 0.13 | 0.00 | 51 | 1007.5 |
| 20260509200013 | 30 | 319 | 3.2 | 9.7 | 0.00 | 0.13 | 0.00 | 52 | 1007.7 |
| 20260509194512 | 30 | 263 | 3.2 | 8.0 | 0.00 | 0.33 | 0.00 | 52 | 1007.8 |
| 20260509193006 | 29 | 306 | 1.6 | 9.7 | 0.00 | 0.33 | 0.00 | 51 | 1008.1 |
| 20260509191505 | 29 | 278 | 4.8 | 12.9 | 0.00 | 0.33 | 0.00 | 52 | 1008.2 |
| 20260509190002 | 28 | 290 | 6.4 | 11.3 | 0.00 | 0.33 | 0.00 | 57 | 1008.3 |
| 20260509184603 | 28 | 286 | 3.2 | 9.7 | 0.00 | 0.33 | 0.00 | 55 | 1008.4 |
| 20260509183138 | 28 | 335 | 9.7 | 16.1 | 0.00 | 0.33 | 0.00 | 55 | 1008.5 |
| 20260509181612 | 28 | 223 | 1.6 | 9.7 | 0.00 | 0.33 | 0.00 | 56 | 1008.7 |
| 20260509180055 | 27 | 45 | 3.2 | 11.3 | 0.00 | 0.33 | 0.00 | 58 | 1008.9 |
| 20260509174554 | 27 | 306 | 4.8 | 14.5 | 0.00 | 0.33 | 0.00 | 59 | 1009.0 |
| 20260509173101 | 27 | 258 | 6.4 | 12.9 | 0.00 | 0.33 | 0.00 | 58 | 1009.1 |
| 20260509171548 | 27 | 344 | 4.8 | 9.7 | 0.00 | 0.33 | 0.00 | 64 | 1009.3 |
| 20260509170046 | 26 | 303 | 3.2 | 11.3 | 0.00 | 0.33 | 0.00 | 66 | 1009.3 |
| 20260509164543 | 26 | 318 | 1.6 | 11.3 | 0.00 | 0.33 | 0.00 | 66 | 1009.5 |
| 20260509163040 | 26 | 254 | 3.2 | 14.5 | 0.00 | 0.33 | 0.00 | 68 | 1009.6 |
| 20260509161539 | 25 | 311 | 4.8 | 14.5 | 0.00 | 0.33 | 0.00 | 67 | 1009.7 |
| 20260509160039 | 25 | 296 | 8.0 | 12.9 | 0.00 | 0.33 | 0.00 | 64 | 1009.7 |
| 20260509154536 | 25 | 259 | 6.4 | 14.5 | 0.00 | 0.33 | 0.00 | 66 | 1009.6 |
| 20260509153035 | 25 | 335 | 6.4 | 14.5 | 0.00 | 0.33 | 0.00 | 67 | 1009.4 |
| 20260509151532 | 24 | 311 | 6.4 | 12.9 | 0.00 | 0.33 | 0.00 | 70 | 1009.3 |
| 20260509150032 | 24 | 355 | 8.0 | 12.9 | 0.00 | 0.33 | 0.00 | 70 | 1009.3 |
| 20260509144535 | 23 | 355 | 9.7 | 19.3 | 0.00 | 0.33 | 0.00 | 72 | 1009.4 |
| 20260509143024 | 23 | 321 | 9.7 | 19.3 | 0.00 | 0.33 | 0.00 | 75 | 1009.4 |
| 20260509141520 | 22 | 304 | 9.7 | 16.1 | 0.00 | 0.33 | 0.00 | 81 | 1009.6 |
| 20260509140016 | 21 | 295 | 4.8 | 14.5 | 0.00 | 0.33 | 0.00 | 82 | 1009.7 |
| 20260509134514 | 20 | 306 | 8.0 | 16.1 | 0.00 | 0.33 | 0.00 | 83 | 1009.8 |
| 20260509133013 | 20 | 290 | 6.4 | 16.1 | 0.00 | 0.33 | 0.00 | 84 | 1009.7 |
| 20260509131513 | 20 | 272 | 8.0 | 14.5 | 0.00 | 0.33 | 0.00 | 83 | 1009.5 |
| 20260509130013 | 19 | 287 | 6.4 | 11.3 | 0.00 | 0.33 | 0.00 | 84 | 1009.4 |
| 20260509124514 | 18 | 249 | 3.2 | 8.0 | 0.00 | 0.33 | 0.00 | 84 | 1009.5 |
| 20260509123011 | 18 | 277 | 1.6 | 6.4 | 0.00 | 0.33 | 0.00 | 84 | 1009.3 |
| 20260509121514 | 17 | 288 | 3.2 | 8.0 | 0.00 | 0.33 | 0.00 | 84 | 1009.3 |
| 20260509120013 | 17 | 259 | 3.2 | 6.4 | 0.00 | 0.33 | 0.00 | 84 | 1009.2 |
| 20260509114509 | 17 | 167 | 0.0 | 0.0 | 0.00 | 0.33 | 0.00 | 83 | 1009.0 |
| 20260509113006 | 17 | 167 | 0.0 | 0.0 | 0.00 | 0.33 | 0.00 | 83 | 1008.8 |
| 20260509111504 | 18 | 13 | 0.0 | 0.0 | 0.00 | 0.33 | 0.00 | 81 | 1008.6 |
| 20260509110000 | 18 | 292 | 0.0 | 4.8 | 0.00 | 0.33 | 0.00 | 81 | 1008.5 |
| 20260509104559 | 19 | 282 | 1.6 | 9.7 | 0.00 | 0.33 | 0.00 | 79 | 1008.5 |
| 20260509103101 | 20 | 319 | 11.3 | 19.3 | 0.00 | 0.33 | 0.00 | 80 | 1008.3 |
| 20260509101559 | 20 | 310 | 4.8 | 12.9 | 0.00 | 0.33 | 0.00 | 84 | 1008.3 |
| 20260509094555 | 20 | 193 | 12.9 | 24.1 | 0.00 | 0.33 | 0.00 | 84 | 1006.5 |
| 20260509093058 | 20 | 193 | 16.1 | 30.6 | 0.00 | 0.33 | 0.00 | 84 | 1005.6 |
| 20260509091554 | 20 | 143 | 16.1 | 32.2 | 0.00 | 0.33 | 0.00 | 84 | 1005.2 |
| 20260509090051 | 20 | 156 | 16.1 | 22.5 | 0.00 | 0.33 | 0.00 | 84 | 1005.9 |
| 20260509084554 | 20 | 178 | 16.1 | 25.7 | 0.00 | 0.33 | 0.00 | 84 | 1006.2 |
| 20260509083043 | 20 | 186 | 11.3 | 19.3 | 0.00 | 0.33 | 0.00 | 83 | 1006.6 |
| 20260509081542 | 19 | 166 | 6.4 | 16.1 | 0.00 | 0.33 | 0.00 | 82 | 1007.4 |
| 20260509080049 | 19 | 120 | 11.3 | 14.5 | 0.00 | 0.33 | 0.00 | 82 | 1007.8 |
| 20260509074536 | 18 | 178 | 4.8 | 11.3 | 0.00 | 0.33 | 0.00 | 83 | 1008.4 |
| 20260509073034 | 19 | 195 | 6.4 | 9.7 | 0.00 | 0.33 | 0.00 | 83 | 1009.4 |
| 20260509071530 | 19 | 200 | 4.8 | 12.9 | 0.00 | 0.33 | 0.00 | 82 | 1010.1 |
| 20260509070030 | 19 | 289 | 4.8 | 11.3 | 0.00 | 0.33 | 0.00 | 83 | 1011.0 |
| 20260509064528 | 19 | 288 | 3.2 | 6.4 | 0.00 | 0.33 | 0.00 | 83 | 1010.9 |
| 20260509063026 | 19 | 303 | 4.8 | 11.3 | 0.00 | 0.33 | 0.00 | 82 | 1010.6 |
| 20260509061525 | 19 | 328 | 3.2 | 8.0 | 0.00 | 0.33 | 0.00 | 83 | 1010.2 |
| 20260509060026 | 19 | 343 | 4.8 | 9.7 | 0.00 | 0.33 | 0.00 | 83 | 1010.3 |
| 20260509054520 | 19 | 327 | 4.8 | 6.4 | 0.00 | 0.33 | 0.00 | 83 | 1010.0 |
| 20260509053030 | 19 | 146 | 0.0 | 4.8 | 0.00 | 0.33 | 0.00 | 83 | 1009.4 |
| 20260509051523 | 19 | 171 | 1.6 | 6.4 | 0.00 | 0.33 | 0.00 | 84 | 1009.3 |
| 20260509050016 | 19 | 153 | 3.2 | 6.4 | 0.00 | 0.33 | 0.00 | 84 | 1009.2 |
| 20260509044511 | 20 | 103 | 3.2 | 4.8 | 0.00 | 0.33 | 0.33 | 84 | 1009.5 |
| 20260509043011 | 20 | 110 | 1.6 | 4.8 | 0.00 | 0.33 | 0.33 | 84 | 1009.3 |
| 20260509041512 | 20 | 76 | 3.2 | 8.0 | 0.00 | 0.33 | 0.33 | 84 | 1009.3 |
| 20260509040011 | 20 | 138 | 3.2 | 6.4 | 0.00 | 0.33 | 0.33 | 84 | 1009.0 |
| 20260509034509 | 20 | 148 | 6.4 | 11.3 | 0.00 | 0.33 | 0.33 | 84 | 1008.6 |
| 20260509033009 | 20 | 121 | 4.8 | 11.3 | 0.00 | 0.33 | 0.33 | 84 | 1008.6 |
| 20260509031509 | 20 | 144 | 4.8 | 11.3 | 0.00 | 0.33 | 0.33 | 84 | 1008.3 |
| 20260509030009 | 20 | 150 | 4.8 | 9.7 | 0.00 | 0.33 | 0.33 | 84 | 1008.0 |
| 20260509024508 | 21 | 167 | 4.8 | 9.7 | 0.00 | 0.33 | 0.33 | 84 | 1007.7 |
| 20260509023007 | 21 | 178 | 4.8 | 9.7 | 0.00 | 0.33 | 0.33 | 84 | 1007.8 |
| 20260509021507 | 21 | 151 | 4.8 | 8.0 | 0.00 | 0.33 | 0.33 | 84 | 1007.9 |
| 20260509020012 | 21 | 167 | 3.2 | 8.0 | 0.00 | 0.33 | 0.33 | 84 | 1008.0 |
| 20260509014515 | 21 | 165 | 3.2 | 8.0 | 0.00 | 0.33 | 0.33 | 84 | 1007.8 |
| 20260509013006 | 21 | 150 | 3.2 | 6.4 | 0.00 | 0.33 | 0.33 | 84 | 1007.7 |
| 20260509011506 | 21 | 155 | 0.0 | 4.8 | 0.00 | 0.33 | 0.33 | 83 | 1007.7 |
| 20260509010005 | 21 | 120 | 3.2 | 8.0 | 0.00 | 0.33 | 0.33 | 83 | 1007.0 |
| 20260509004503 | 21 | 134 | 4.8 | 6.4 | 0.00 | 0.33 | 0.33 | 83 | 1007.0 |
| 20260509003001 | 22 | 157 | 3.2 | 6.4 | 0.00 | 0.33 | 0.33 | 83 | 1007.1 |
| 20260509001502 | 22 | 134 | 3.2 | 4.8 | 0.00 | 0.33 | 0.33 | 82 | 1007.4 |
| 20260509000001 | 22 | 142 | 3.2 | 6.4 | 0.00 | 0.33 | 0.33 | 83 | 1007.5 |
| 20260508234600 | 22 | 178 | 1.6 | 8.0 | 0.00 | 0.33 | 0.33 | 83 | 1007.5 |
| 20260508233132 | 22 | 159 | 3.2 | 6.4 | 0.00 | 0.33 | 0.33 | 82 | 1007.4 |
| 20260508231559 | 22 | 150 | 3.2 | 9.7 | 0.00 | 0.33 | 0.33 | 82 | 1007.4 |
| 20260508230100 | 22 | 167 | 6.4 | 11.3 | 0.00 | 0.33 | 0.33 | 82 | 1007.5 |
| 20260508224618 | 22 | 121 | 6.4 | 12.9 | 0.00 | 0.33 | 0.33 | 82 | 1007.5 |
| 20260508223057 | 22 | 92 | 8.0 | 16.1 | 0.00 | 0.33 | 0.33 | 82 | 1007.5 |
| 20260508221554 | 21 | 125 | 8.0 | 14.5 | 0.00 | 0.33 | 0.33 | 83 | 1007.6 |
| 20260508220055 | 21 | 126 | 9.7 | 16.1 | 0.00 | 0.33 | 0.33 | 83 | 1007.8 |
| 20260508214549 | 20 | 123 | 12.9 | 17.7 | 0.00 | 0.33 | 0.33 | 84 | 1008.0 |
| 20260508213049 | 20 | 117 | 4.8 | 9.7 | 0.00 | 0.33 | 0.33 | 84 | 1008.3 |